Wind_Speed
21 21 22 23 24 28 31 32 32 32 30 29 27 26 24 22 22 22 21 21 21 20 19 18 18 18 17 15 14 12 11 11 11 11 12 14 14 15 15 16 16 16 16 17 18 19 19 18 19 20 21 22 23 24 25 26 28 28 30 31 31 32 32 33 34 32 27 26 30 31 29 30 29 27 29 30 28 29 30 31 31 32 32 33 33
22 23 24 25 26 29 32 33 34 35 34 32 31 30 27 24 24 23 22 21 20 19 17 17 17 17 16 15 14 13 12 12 12 13 14 14 15 15 16 17 17 17 17 18 20 20 20 19 19 20 22 23 23 24 25 27 29 29 30 31 32 31 32 33 34 35 30 26 29 31 30 30 30 27 27 28 28 28 29 30 30 31 32 32 33
23 26 28 29 30 31 32 34 35 37 38 37 36 36 33 29 27 24 22 21 20 20 19 16 16 16 16 15 14 14 13 13 13 14 14 15 15 16 16 17 18 18 19 20 21 21 21 21 21 22 24 24 24 25 26 27 29 30 30 31 32 31 31 33 34 35 33 29 29 32 32 32 32 28 26 27 29 30 30 30 30 31 32 33 34
25 28 30 31 32 34 35 36 37 39 41 41 42 43 40 35 31 27 24 23 22 22 21 17 17 18 16 16 15 14 14 14 14 15 15 15 15 16 17 18 18 19 20 21 22 22 22 22 23 24 26 26 26 26 27 28 29 29 29 30 31 31 31 32 33 33 34 33 31 32 35 34 32 29 28 29 30 31 31 31 32 33 33 34 35
26 29 31 33 34 35 38 40 41 42 42 43 44 47 45 41 36 32 28 26 25 24 22 20 21 19 16 16 16 15 15 15 15 15 16 16 16 16 17 18 19 20 21 22 23 23 24 24 24 26 27 28 28 28 29 29 29 28 29 29 30 31 31 31 31 32 34 35 34 33 33 34 32 30 29 31 32 32 32 32 33 35 35 35 36
26 29 31 34 35 37 40 43 45 46 45 45 46 47 48 46 42 36 33 31 29 27 24 21 20 17 14 16 16 15 16 16 16 16 16 17 17 17 18 18 19 20 22 24 25 25 26 26 25 26 28 29 29 30 30 30 29 28 28 30 30 30 31 31 31 32 33 35 35 33 32 32 33 31 29 31 33 34 34 35 35 36 36 37 37
25 27 28 30 32 35 39 42 46 49 50 48 47 49 50 48 45 40 37 35 32 29 26 22 19 15 13 15 16 16 18 17 16 17 17 17 17 17 18 18 19 21 23 25 26 27 27 27 26 26 27 29 30 30 31 30 29 28 29 31 31 31 31 32 32 32 33 35 35 33 32 32 33 32 30 30 32 34 36 39 39 37 36 38 40
24 25 26 27 28 31 35 39 45 51 54 52 51 52 50 48 46 43 39 36 33 29 28 26 20 14 12 15 17 18 18 17 17 17 17 18 18 18 18 19 19 21 23 25 26 27 27 27 26 27 27 29 29 30 30 30 30 29 30 32 33 32 32 32 32 32 32 34 33 33 33 33 33 32 31 31 33 33 35 39 41 40 39 40 41
24 25 27 27 27 30 32 35 42 50 56 56 54 53 51 49 47 42 36 33 32 30 28 24 18 12 12 16 18 18 17 16 17 17 18 18 18 18 19 19 21 22 24 25 26 27 27 27 27 28 28 30 30 31 30 30 31 31 31 33 33 33 33 32 32 32 32 32 32 32 33 33 31 31 32 32 33 35 36 38 40 41 42 44 44
26 27 29 29 30 32 34 36 41 47 54 56 53 50 49 49 48 39 32 31 32 30 27 22 17 13 14 17 18 17 16 16 16 17 18 18 19 19 20 21 22 24 25 26 27 27 27 27 28 28 30 31 31 31 31 31 32 33 33 33 33 34 34 32 31 31 32 32 32 32 32 32 30 31 33 33 34 36 37 39 41 42 44 47 48
29 31 31 32 33 35 36 38 41 45 51 54 53 46 39 39 40 35 29 31 33 31 26 21 18 15 16 18 17 16 16 15 16 16 17 19 20 21 21 22 24 25 26 27 28 28 28 28 29 30 31 32 32 32 31 31 32 34 35 34 34 35 35 32 30 30 31 32 32 32 32 32 31 31 32 33 35 37 38 39 41 43 45 49 52
32 33 33 34 35 36 36 38 41 43 48 53 52 40 28 26 27 25 23 25 28 27 23 20 18 17 18 17 16 15 16 15 15 16 18 19 21 23 24 25 26 27 27 29 30 30 30 30 31 31 32 32 32 32 32 31 32 34 35 35 35 35 33 31 30 30 30 32 33 32 31 32 33 31 31 33 36 38 39 39 40 44 47 50 55
33 33 33 34 35 36 36 37 40 42 45 52 50 34 22 21 20 17 19 20 21 22 20 20 20 18 17 16 16 16 16 16 16 17 19 20 23 25 26 27 28 28 28 30 31 31 31 32 32 32 32 33 33 33 34 33 32 33 34 34 32 30 27 28 29 30 30 32 34 32 31 32 33 32 31 34 38 39 40 40 41 45 49 52 56
27 27 28 30 31 32 32 34 38 38 41 48 46 29 18 19 18 17 21 21 20 20 19 20 21 18 17 16 17 17 16 16 18 19 21 23 25 26 27 28 29 29 29 31 32 33 33 34 35 34 33 34 34 35 35 34 33 33 32 30 27 25 25 26 28 29 30 32 35 34 31 31 33 33 32 34 38 39 41 42 43 46 51 54 57
22 23 24 24 25 26 28 30 33 34 38 44 40 24 15 17 18 19 22 21 19 19 19 20 20 17 17 18 18 17 17 18 20 21 23 25 27 28 29 30 30 30 31 32 34 34 35 35 36 36 35 35 34 35 34 32 30 29 28 26 24 24 24 25 27 28 29 31 34 34 31 30 32 33 33 34 37 38 40 42 44 48 53 57 59
22 22 21 20 20 22 25 28 30 29 31 32 28 20 15 17 18 19 21 20 17 18 19 19 18 16 18 19 19 18 18 21 23 24 25 28 30 30 31 33 32 32 33 34 35 35 35 36 37 36 36 34 32 31 30 28 26 25 25 24 24 24 24 25 27 28 29 30 32 32 31 30 31 33 34 35 36 38 40 42 43 48 54 58 60
22 22 21 20 20 21 23 26 27 25 23 19 17 15 13 16 19 19 19 18 17 18 19 18 16 17 19 20 20 20 21 24 26 26 28 30 31 32 34 34 34 33 34 34 35 35 35 35 36 36 34 32 29 27 25 24 23 23 24 24 24 24 24 25 26 28 28 30 30 30 30 31 32 33 33 34 35 37 41 42 42 46 52 57 62
23 24 23 22 22 21 21 22 22 21 19 14 12 11 11 15 18 19 19 18 18 19 19 18 17 19 20 21 22 22 24 26 27 29 31 32 32 34 35 35 35 34 35 35 34 34 34 34 35 34 32 28 25 24 23 23 23 23 24 25 24 24 24 24 25 26 27 28 28 28 29 30 32 32 32 33 33 35 39 41 42 46 51 56 62
24 24 23 22 22 20 19 20 19 17 15 13 11 10 13 16 17 18 19 18 18 20 20 19 19 21 22 23 24 25 27 27 28 30 32 32 34 36 36 35 35 35 35 34 33 32 32 33 33 32 30 26 24 23 23 23 24 25 25 25 24 22 22 23 23 24 25 26 26 27 28 30 31 32 32 31 31 32 35 39 41 45 51 56 61
23 21 21 21 19 18 18 20 20 16 13 13 12 12 15 15 16 17 18 17 18 19 20 20 21 22 23 25 26 28 30 30 30 31 33 35 36 37 36 36 35 35 34 33 32 30 30 31 31 30 28 26 25 24 24 24 25 25 25 24 23 21 21 22 23 24 25 25 27 28 28 29 30 30 30 30 30 31 33 36 38 43 49 56 60
21 19 18 18 17 17 17 19 19 16 14 14 14 16 17 16 17 17 17 17 18 19 20 22 23 24 25 27 29 31 33 34 34 35 37 39 38 36 36 36 35 35 33 32 31 30 29 28 28 28 27 26 25 25 25 25 25 25 24 23 23 22 22 23 24 25 26 27 28 29 29 29 29 29 29 29 29 30 31 33 36 41 47 55 58
20 17 16 16 16 16 18 19 18 17 17 18 18 20 20 20 20 19 17 18 19 20 21 23 24 27 29 31 34 35 35 35 36 36 36 35 34 34 35 35 34 33 32 31 30 29 28 27 27 27 27 26 26 26 26 26 25 24 24 24 23 23 24 24 25 26 27 28 29 29 30 31 30 29 29 29 29 30 31 32 35 39 46 52 54
20 17 15 15 16 17 19 21 20 20 21 22 21 21 22 23 22 20 19 20 21 21 23 24 26 29 31 33 37 38 38 38 37 33 29 28 30 32 33 33 33 32 31 30 29 28 28 27 27 27 27 26 27 27 26 25 25 24 24 24 24 24 24 25 26 27 28 29 30 30 31 32 32 31 30 30 30 30 31 32 35 39 46 51 49
20 16 14 15 16 18 21 22 23 23 24 23 21 20 21 22 21 20 19 19 20 20 22 24 27 30 32 34 37 39 39 38 35 28 25 26 29 31 31 32 32 32 31 30 29 28 27 28 28 28 27 27 27 26 25 24 24 24 24 24 24 24 25 26 27 28 29 30 30 31 31 32 32 32 31 30 30 30 31 32 34 39 46 50 47
18 15 14 15 17 19 21 23 24 24 24 21 18 18 21 23 21 20 18 16 17 19 22 26 29 31 33 34 35 36 34 31 29 27 27 30 30 31 31 31 32 31 31 30 29 28 28 28 29 28 27 26 26 25 24 24 24 24 24 24 25 25 26 27 28 28 29 30 30 31 31 31 32 31 31 31 31 30 31 32 33 38 46 49 45
15 13 13 15 17 19 21 23 24 24 23 21 17 16 19 21 20 19 18 16 17 21 25 28 32 34 35 34 34 32 29 27 27 28 30 31 31 31 31 31 31 30 30 30 29 29 29 29 29 27 25 24 24 24 23 24 24 24 25 25 26 26 27 27 28 28 29 30 31 31 31 31 31 30 30 30 30 30 31 32 32 38 46 50 46
12 12 14 16 17 19 22 24 24 25 24 22 18 16 18 20 19 19 17 17 20 24 27 30 33 35 35 34 33 31 30 29 29 30 30 30 30 30 30 30 30 30 30 30 30 30 30 29 27 25 23 22 22 22 23 24 25 26 26 26 26 26 26 26 27 28 29 31 31 31 31 31 31 30 29 29 29 29 30 31 32 37 44 50 48
10 13 15 17 18 20 23 25 26 26 25 22 20 20 21 19 18 17 17 19 23 26 28 30 32 33 32 31 31 31 31 30 30 30 30 30 30 30 30 30 30 30 30 30 30 31 29 27 24 22 20 20 21 22 24 26 27 27 27 27 26 26 25 25 26 28 30 31 32 31 30 30 29 29 28 27 27 28 28 28 30 35 42 47 48
10 13 16 18 19 21 23 24 25 26 24 22 21 22 21 18 16 17 18 20 22 24 25 27 28 28 28 28 29 31 31 31 30 30 30 30 31 30 30 30 29 29 29 30 30 29 26 22 20 19 19 19 21 24 26 27 28 28 28 27 26 26 25 25 26 28 30 31 31 31 30 29 28 28 28 26 25 25 26 26 27 32 38 44 47
10 12 14 15 17 20 22 23 24 24 23 22 22 22 20 19 18 18 18 19 20 21 23 24 25 25 26 27 28 29 29 30 30 30 31 31 30 29 29 28 28 28 29 29 28 25 22 19 18 18 19 21 23 25 27 28 28 28 28 27 26 25 25 26 26 27 29 30 31 30 29 28 27 26 26 26 24 23 23 24 25 28 34 41 45
9 10 11 12 14 16 17 18 22 23 23 23 22 20 19 19 18 17 17 17 18 19 21 22 23 24 25 26 27 28 28 29 30 30 30 29 27 27 27 27 27 28 28 27 25 23 20 19 19 20 21 23 25 26 26 27 27 27 27 26 26 25 25 26 26 27 28 29 29 29 28 27 26 25 25 25 24 22 21 21 22 24 30 36 42
7 8 9 10 13 16 17 18 21 22 22 21 20 19 18 18 16 16 16 17 17 18 19 21 22 24 25 26 26 27 28 29 29 29 28 26 24 24 25 26 27 27 26 25 23 22 21 20 21 22 23 25 26 26 25 25 25 26 26 26 26 26 26 26 26 26 27 28 28 27 26 25 24 24 24 24 23 21 20 20 20 21 25 31 37
7 8 9 10 12 16 18 20 21 21 20 19 18 18 18 17 17 17 17 17 17 17 18 20 22 24 25 26 26 27 27 28 28 27 24 23 24 24 25 26 27 26 24 23 23 22 22 22 22 23 25 26 26 25 25 25 25 25 26 26 26 26 26 26 26 26 26 26 26 25 24 23 23 22 22 23 22 21 19 19 19 19 21 26 32
6 8 10 11 13 15 18 20 21 21 20 20 20 19 18 18 18 18 17 17 17 17 20 23 24 24 25 26 25 25 26 26 25 24 23 23 24 24 25 26 26 25 23 22 23 23 22 22 23 24 25 25 25 24 25 25 25 25 26 26 26 26 25 26 25 25 24 24 24 23 22 22 22 21 21 21 20 19 18 17 17 18 19 22 27
7 9 11 13 15 17 20 21 22 22 22 22 21 20 19 19 19 18 17 18 18 19 22 26 25 23 25 26 25 25 26 25 23 23 23 24 24 24 25 26 26 24 23 22 23 23 23 23 23 24 25 25 25 25 25 25 25 25 25 25 25 24 24 24 24 23 22 22 21 21 20 20 20 20 20 20 19 18 17 16 15 17 18 20 23
11 12 13 14 16 19 21 23 23 24 24 23 22 21 21 20 19 19 19 19 20 22 25 28 27 25 25 24 23 23 24 23 22 23 24 25 24 25 25 26 25 24 23 22 22 23 22 23 24 24 25 25 25 26 26 25 25 24 24 24 23 23 23 22 21 20 19 19 19 18 17 17 18 18 18 20 20 19 18 16 15 15 16 17 19
15 14 13 14 17 21 23 24 25 26 25 24 23 23 22 21 21 21 20 20 22 24 25 26 26 24 23 21 20 20 21 22 23 24 25 25 25 25 25 25 25 24 23 22 22 22 23 24 25 25 25 25 25 26 26 25 24 23 23 22 22 22 21 20 18 16 16 16 16 16 15 16 16 16 17 18 19 18 17 16 14 14 14 15 16
19 16 14 16 20 23 25 26 27 27 26 25 24 24 23 23 23 22 21 22 23 24 23 23 25 26 24 21 20 21 22 22 23 24 25 25 26 26 25 25 25 24 23 22 22 23 25 26 27 26 26 25 25 26 25 24 23 22 21 21 20 20 18 16 15 13 13 14 14 14 14 14 14 15 16 17 18 18 18 16 14 12 11 12 13
22 19 17 20 23 25 27 28 28 28 27 26 25 24 24 24 24 23 23 23 24 24 24 25 27 26 24 22 22 23 23 23 23 24 25 26 26 26 25 25 25 24 23 22 23 24 26 27 27 26 25 25 25 25 24 22 21 20 19 18 18 17 15 14 12 12 11 12 13 13 13 13 14 14 15 16 17 18 18 17 15 12 10 10 11
23 21 21 23 25 27 27 28 28 28 28 27 25 25 25 25 24 24 24 25 26 26 27 27 25 22 21 21 23 23 23 23 24 24 24 25 25 24 24 24 24 24 24 23 24 25 27 27 26 25 25 24 24 23 22 20 19 18 17 16 15 14 13 12 11 10 10 10 11 11 12 12 13 14 15 16 16 17 18 18 16 13 11 10 11
20 20 21 23 24 25 25 27 28 29 28 27 26 26 25 25 25 25 25 26 28 29 30 29 25 23 22 24 24 24 23 23 24 24 24 24 24 24 24 24 25 25 25 25 26 26 26 25 24 24 24 23 22 21 19 18 17 16 15 14 13 13 12 10 9 9 9 9 10 11 11 12 12 12 13 14 15 17 18 18 17 15 12 10 10
16 17 19 21 23 25 27 29 30 30 29 28 28 27 26 26 27 27 28 29 31 32 32 28 24 22 23 24 25 25 25 25 25 25 25 25 25 24 25 25 26 26 25 25 25 25 25 24 23 23 22 20 19 18 17 16 15 13 12 12 12 12 11 9 8 8 9 9 10 11 12 12 12 12 12 13 14 15 16 17 16 15 13 11 9
15 17 19 23 26 28 30 31 30 29 28 28 28 28 28 28 29 29 30 32 33 33 31 27 23 23 24 25 26 26 26 26 27 27 27 26 26 25 24 25 25 25 24 24 24 23 22 22 21 20 19 18 17 17 16 14 13 12 11 11 12 11 10 9 8 9 10 10 11 12 13 13 13 12 11 11 12 13 14 15 15 15 14 12 10
17 19 21 24 27 29 28 27 26 26 27 28 29 29 30 30 31 31 32 32 31 29 28 26 25 25 25 25 27 28 28 28 28 27 27 26 25 23 23 23 23 23 23 23 23 22 21 20 20 18 17 17 16 15 13 12 11 11 11 11 11 10 9 8 9 10 11 11 12 12 13 14 14 13 12 11 11 11 12 12 13 13 13 13 12
19 20 22 24 25 25 24 24 25 27 28 29 29 30 30 31 31 31 30 29 27 26 26 25 25 25 25 26 28 29 30 29 28 26 25 24 23 22 21 21 22 23 23 23 23 22 20 19 18 17 16 16 15 13 12 11 11 11 11 10 10 10 9 9 10 10 11 12 12 12 12 13 13 13 12 11 10 9 10 10 10 11 12 12 12
19 20 21 22 23 23 24 26 28 29 29 29 29 29 30 29 29 28 27 26 24 24 23 23 23 23 24 26 27 27 27 27 26 24 24 23 23 23 22 22 22 22 23 22 22 20 19 18 17 16 15 15 13 11 11 11 11 11 10 10 9 9 10 10 10 11 11 12 12 12 12 12 12 12 12 11 9 8 8 8 8 9 10 10 11
20 21 22 22 23 24 25 26 27 28 28 28 28 28 28 27 27 26 25 24 23 22 22 22 22 22 23 24 24 24 24 24 24 23 23 23 23 24 23 22 22 22 22 21 19 18 18 17 16 14 14 13 12 11 11 11 11 10 10 9 9 9 10 10 11 11 11 12 12 12 12 12 12 11 11 10 9 8 8 8 7 7 8 8 8
21 22 22 22 23 23 24 24 25 25 26 26 26 26 25 25 25 24 23 23 22 22 22 22 22 22 22 22 22 22 23 23 23 23 23 23 24 24 24 22 21 21 19 18 17 17 16 15 14 13 13 13 12 11 11 11 10 10 9 9 9 9 10 10 10 11 11 11 12 12 12 11 11 11 10 10 9 8 7 7 7 6 6 7 7
22 22 22 23 23 23 23 23 23 23 23 23 23 23 23 23 23 23 22 22 21 21 21 22 22 22 23 23 23 23 24 24 24 23 22 22 23 24 23 22 20 18 17 16 16 16 15 14 13 12 12 12 11 11 11 11 10 10 9 9 9 9 10 10 11 11 11 11 11 11 12 11 11 10 10 9 9 8 7 7 7 6 6 6 6
21 21 21 21 20 20 21 21 21 21 21 21 21 22 22 22 22 21 21 21 21 21 21 22 23 23 23 23 24 24 24 24 23 22 21 21 22 22 23 22 19 16 15 15 16 15 14 14 13 12 12 12 12 11 11 11 11 10 10 9 9 9 10 10 11 11 12 12 11 11 11 11 11 10 9 9 8 8 8 8 7 7 6 6 6
18 18 18 18 18 18 18 19 19 19 20 20 21 21 21 20 20 20 20 21 22 22 23 23 24 24 24 24 24 24 24 23 23 22 21 21 21 21 21 21 19 15 14 15 16 15 15 14 13 12 12 12 12 12 12 12 12 11 10 10 10 10 10 10 11 11 12 12 11 11 11 10 10 9 9 8 8 8 8 8 8 7 6 5 5
Wind_Direction
250 250 251 252 252 252 252 251 249 246 246 250 257 262 265 267 271 276 282 287 293 298 302 305 309 315 318 318 313 306 303 305 311 318 324 327 326 326 329 331 329 324 317 311 307 305 304 301 298 295 294 296 298 298 299 299 299 300 301 301 301 302 301 300 300 299 298 297 297 298 299 299 299 297 293 288 284 283 284 284 283 282 280 278 276
255 254 252 252 253 251 251 252 251 248 247 249 255 261 260 259 265 271 275 279 284 287 292 299 305 310 312 309 304 300 299 300 308 317 322 322 322 324 326 328 327 323 317 311 306 305 305 304 301 298 296 297 299 300 301 302 302 302 302 301 300 300 299 299 298 299 300 300 298 297 298 299 300 299 294 289 285 282 281 283 283 283 281 279 276
259 256 253 255 258 255 253 254 251 250 251 251 253 257 256 254 256 261 266 269 272 276 280 288 301 305 304 302 298 295 296 300 308 315 316 316 317 319 320 321 321 319 315 310 307 305 305 304 302 299 298 298 300 301 302 302 303 303 303 301 299 298 296 296 297 298 299 298 295 296 297 298 299 298 293 288 286 284 282 282 283 282 281 280 279
261 259 257 259 261 257 254 255 254 254 256 254 253 256 258 258 252 249 254 259 262 268 272 281 297 302 299 296 295 293 295 300 306 308 308 308 310 313 315 317 317 315 313 310 307 305 304 304 302 299 297 297 298 298 299 301 301 302 303 302 299 297 294 294 296 297 297 295 294 295 296 297 297 297 294 291 288 287 287 287 286 284 283 283 283
262 262 261 261 262 259 254 253 254 257 258 257 257 258 260 260 255 247 247 252 257 261 265 276 286 290 292 290 289 291 292 296 300 300 301 303 306 310 312 314 314 313 313 311 308 306 305 304 301 298 297 297 297 296 297 298 299 301 303 302 299 297 294 294 295 295 295 296 296 296 296 297 297 297 297 295 292 291 291 290 289 287 286 286 285
260 261 262 263 264 262 257 255 256 257 256 257 259 260 260 261 261 257 250 248 253 259 263 274 279 276 279 282 283 287 289 292 296 298 300 303 306 309 309 310 312 313 314 312 310 308 306 304 302 300 299 299 298 297 296 295 296 298 301 302 301 298 296 294 294 294 295 296 297 298 298 297 297 298 299 298 296 295 294 291 288 289 290 289 286
258 262 265 267 268 267 264 264 263 260 258 259 261 262 263 264 264 264 257 246 246 256 263 272 276 268 268 276 279 284 285 289 295 298 301 303 305 306 306 306 310 313 314 312 309 307 305 304 304 303 303 303 302 301 298 295 294 295 299 302 302 301 298 295 294 294 295 296 297 298 298 297 297 300 302 299 297 298 297 294 292 293 293 291 289
260 264 267 270 273 272 271 271 268 262 259 261 263 264 267 267 263 264 261 248 242 251 261 267 267 260 263 273 276 279 282 287 293 296 301 304 303 303 303 304 308 312 313 311 308 307 306 305 305 304 304 304 304 304 302 299 296 296 298 300 301 302 300 296 294 295 296 296 296 297 297 297 299 302 301 300 300 299 298 297 297 298 298 294 293
264 267 270 271 273 273 273 274 271 266 262 260 260 260 262 260 258 262 265 254 244 250 259 260 257 253 261 267 268 272 279 285 291 295 302 304 303 302 301 302 304 308 310 310 308 307 306 305 304 303 303 304 304 304 303 302 300 298 297 297 300 302 300 296 295 296 296 295 296 296 296 297 301 302 301 303 304 302 301 301 301 301 301 297 296
266 269 271 273 275 275 276 277 276 274 271 266 258 255 257 256 257 264 266 252 245 250 255 256 256 256 255 256 260 268 278 285 290 296 302 304 304 302 300 299 301 305 309 310 309 307 304 302 302 302 303 303 303 303 304 304 303 300 297 296 298 301 300 298 296 296 296 296 296 296 297 300 302 302 304 306 306 304 305 306 304 304 303 300 300
267 269 271 273 276 278 279 281 281 281 282 273 260 259 268 266 263 265 261 249 243 244 246 251 255 253 245 246 255 267 278 284 289 296 301 303 305 303 300 299 300 304 307 308 307 304 301 300 300 300 302 302 302 303 303 303 302 299 296 295 296 300 300 298 295 296 296 296 296 298 301 303 303 304 307 308 306 306 308 309 307 306 306 306 305
270 270 273 273 275 278 279 281 282 282 285 279 268 268 277 267 259 258 252 245 239 235 240 250 252 244 236 241 254 267 277 283 287 293 298 301 303 302 302 301 300 302 304 304 303 302 301 300 300 301 303 304 303 303 301 300 298 295 294 294 297 300 300 296 294 296 296 296 298 301 304 304 305 307 309 308 307 307 308 309 308 308 308 310 309
273 273 275 275 276 280 280 281 283 285 289 284 277 276 271 250 244 237 222 218 221 226 242 255 250 239 233 240 255 267 277 283 285 291 295 298 300 302 303 304 301 300 301 300 301 302 302 304 304 305 306 305 304 303 301 298 294 291 292 295 297 298 296 294 294 295 297 299 300 301 303 304 305 308 309 308 307 308 309 309 309 309 311 311 311
273 273 275 276 278 282 282 285 287 289 292 285 277 276 268 243 230 215 202 202 213 228 246 254 247 237 236 245 257 267 277 284 284 288 292 293 296 301 305 304 299 297 298 300 301 303 305 307 307 308 308 306 305 304 301 298 294 292 293 294 295 295 294 294 294 295 297 299 298 299 302 304 305 306 308 308 306 308 310 309 310 312 313 313 313
278 278 279 279 283 284 284 286 284 284 292 286 274 273 271 243 224 211 203 206 221 236 244 244 237 235 242 250 257 267 279 284 283 285 287 289 294 300 304 303 298 297 298 300 302 305 308 309 309 309 309 308 307 304 301 299 296 294 295 295 295 295 295 295 294 294 294 294 294 298 302 302 303 305 306 306 305 307 308 308 312 315 314 313 314
287 286 285 283 285 283 282 283 280 283 294 290 276 275 269 238 219 209 206 213 232 242 239 233 230 239 249 253 259 269 280 283 284 287 287 288 291 297 302 302 299 298 300 302 304 308 310 310 308 308 309 308 307 304 301 301 299 297 296 296 296 296 296 296 294 294 294 293 294 298 300 301 302 303 305 306 306 308 307 308 313 315 312 313 315
292 289 286 282 280 278 280 284 284 289 300 294 277 273 254 221 211 208 210 224 238 236 230 227 233 244 251 256 263 271 277 282 287 289 288 288 289 293 299 301 300 301 302 304 307 309 309 308 307 307 308 307 305 303 302 301 299 298 297 297 297 298 298 295 293 293 293 293 295 297 299 301 302 302 304 305 306 307 307 308 313 313 312 315 317
296 290 284 279 278 278 282 285 286 294 303 295 272 255 223 201 204 211 218 229 232 225 222 227 238 248 254 261 267 272 277 283 288 290 289 290 290 291 296 300 301 302 304 304 306 307 306 306 306 306 307 306 304 303 302 300 300 299 299 299 301 301 299 296 294 293 293 293 295 297 298 299 300 301 303 303 304 305 305 308 313 314 315 318 320
302 294 286 281 281 283 283 280 279 286 294 288 270 238 204 194 204 215 222 225 223 221 225 234 243 250 256 263 269 273 276 279 283 286 287 288 287 288 294 299 301 302 302 303 304 305 305 306 306 307 307 305 303 302 301 300 300 300 301 302 304 304 302 301 299 298 296 295 295 295 295 296 297 299 301 301 303 304 305 308 313 315 318 321 324
306 299 291 286 285 285 282 277 273 271 271 270 259 225 200 195 204 213 219 222 223 227 235 243 250 255 261 270 275 279 280 279 279 279 280 281 282 286 293 298 300 301 301 302 304 305 305 305 305 305 305 303 302 301 300 299 299 301 303 304 305 305 305 306 306 305 303 300 299 297 296 296 297 299 301 302 304 305 306 309 314 317 322 325 326
306 301 293 286 284 284 280 275 268 259 255 255 238 209 197 198 203 209 217 225 229 235 243 252 259 263 269 277 282 284 281 278 277 279 280 280 280 284 293 298 299 300 300 302 304 305 305 304 304 303 302 300 298 297 297 298 300 303 304 304 304 305 306 307 308 308 307 306 304 303 301 300 300 302 304 305 307 308 308 312 317 321 327 329 327
304 298 289 282 280 278 274 268 259 248 242 237 221 205 199 198 199 205 217 227 234 243 253 260 264 267 273 281 286 285 279 278 282 284 282 279 278 284 293 297 297 298 300 303 304 305 304 304 303 302 300 296 293 293 295 298 302 304 303 302 303 305 306 307 307 308 310 311 311 309 307 305 305 306 307 308 310 311 312 316 320 325 331 332 330
300 296 285 276 273 272 269 261 251 243 237 228 219 213 208 200 198 205 216 227 239 250 259 265 268 271 277 283 285 284 284 288 292 289 279 276 282 289 293 295 296 299 301 303 303 304 305 304 303 300 297 293 290 290 294 299 302 302 301 301 302 303 304 305 306 308 311 313 313 313 310 308 307 309 310 311 312 313 315 319 322 328 333 336 334
298 291 279 271 269 270 267 259 252 250 243 229 216 212 208 202 201 209 218 230 241 252 262 270 273 276 280 282 284 287 290 290 289 286 281 283 289 293 294 295 298 300 300 301 302 304 305 304 301 298 294 290 288 289 293 299 301 300 300 300 301 303 304 305 307 308 310 312 314 314 313 311 311 312 313 313 314 316 318 321 324 330 336 339 338
293 284 273 267 267 268 266 261 258 257 251 235 215 204 204 204 206 215 227 240 252 259 268 274 277 278 279 280 284 289 290 285 281 282 287 290 292 293 295 297 298 298 299 301 302 304 304 301 297 293 290 287 287 289 295 299 300 300 301 302 303 304 305 305 306 306 309 314 316 316 317 317 317 317 317 316 317 318 320 322 325 332 339 342 342
291 283 274 270 270 270 268 265 261 255 246 236 222 211 209 209 213 223 234 247 259 265 269 273 276 277 277 278 282 285 284 280 280 284 288 290 292 293 295 296 296 297 299 301 302 303 302 297 292 288 286 285 286 290 296 301 302 303 304 305 305 305 305 305 306 308 312 317 319 320 321 322 321 321 319 318 317 318 320 322 326 334 342 345 345
291 289 285 281 279 277 274 270 261 248 236 230 226 217 210 211 219 230 237 246 255 261 265 268 271 273 274 276 280 283 282 281 283 287 289 290 292 293 294 295 296 298 299 300 301 301 298 293 288 285 285 285 288 294 300 304 305 305 305 306 306 306 305 306 307 310 315 318 321 323 324 324 324 323 321 319 318 319 321 323 328 338 346 347 346
292 297 293 288 285 282 278 271 260 244 232 230 232 228 222 224 233 242 246 250 254 258 261 265 267 269 271 273 276 279 281 283 286 289 291 292 293 294 295 295 296 298 299 300 300 298 294 289 286 285 286 288 292 298 303 305 306 305 304 305 306 307 308 310 310 313 316 319 322 323 324 324 324 323 322 320 318 319 321 323 330 341 347 348 348
290 297 292 289 287 281 272 262 253 242 235 238 245 245 244 248 255 255 254 255 257 260 262 265 267 269 269 270 272 276 280 284 289 291 292 293 294 294 294 295 296 297 299 300 299 296 292 289 288 288 290 294 298 303 305 306 305 304 303 304 307 309 311 313 313 315 316 318 321 322 322 323 323 322 322 321 319 320 322 324 332 343 348 350 350
280 281 278 277 277 274 265 251 241 237 239 244 250 250 249 251 251 252 254 258 261 264 266 268 271 272 272 272 275 278 283 287 290 291 292 292 293 294 294 295 296 298 300 300 298 295 292 290 290 292 296 300 304 306 306 305 304 304 303 305 308 310 312 313 314 315 316 318 320 321 321 321 321 320 321 321 320 322 324 326 335 344 348 350 352
275 274 271 267 264 265 260 243 232 233 239 243 243 240 239 242 245 250 256 260 263 268 271 273 276 277 278 279 281 284 286 287 288 289 290 291 293 294 294 295 296 298 300 300 297 294 292 292 293 296 300 303 304 304 304 303 303 303 305 307 309 310 312 314 315 316 316 317 318 319 318 318 319 320 320 320 321 324 326 329 336 345 349 351 353
262 264 265 262 256 253 251 243 238 239 241 240 237 234 236 240 246 253 259 263 267 272 277 280 282 283 283 283 285 286 286 286 287 287 288 290 293 294 294 295 295 297 299 299 297 293 291 292 294 296 299 300 301 302 302 301 302 304 307 309 311 312 313 314 315 315 316 317 317 318 318 317 318 320 320 319 321 324 326 330 338 346 351 352 353
248 250 252 255 253 249 247 245 242 240 237 234 233 234 237 242 251 259 264 269 274 281 287 290 290 289 287 286 286 286 285 285 284 284 286 290 293 293 292 292 294 297 300 299 296 293 291 290 291 293 295 297 299 299 300 301 303 306 308 310 312 313 313 314 314 316 317 317 318 319 319 319 320 321 319 318 321 324 327 332 339 346 351 354 354
251 255 259 261 257 248 242 239 237 236 234 234 234 236 242 252 260 265 269 274 282 290 294 293 289 287 285 284 283 284 283 281 280 282 285 290 291 290 290 292 295 299 301 300 296 294 291 289 289 290 293 295 297 297 299 301 304 307 309 311 311 312 312 313 315 316 318 318 319 321 321 322 322 321 319 318 320 324 327 332 338 344 351 357 357
268 265 263 262 258 249 240 235 235 236 236 235 237 242 252 262 267 270 275 281 286 291 294 292 288 283 283 284 282 280 280 279 279 282 286 288 289 290 292 295 298 301 301 298 294 290 288 287 288 290 292 295 296 297 299 301 304 307 309 309 309 310 311 312 315 318 319 320 321 323 325 325 325 324 322 320 322 327 329 332 338 343 350 358 1
264 264 262 257 253 245 237 234 235 237 238 239 243 251 261 267 271 274 278 282 286 291 294 293 290 286 286 287 283 278 277 279 281 284 287 289 291 292 294 296 298 300 298 293 288 286 286 287 289 291 293 294 295 296 299 302 305 307 307 307 308 310 311 312 315 320 321 321 324 328 331 333 334 331 328 326 328 331 333 335 338 341 346 357 4
260 260 258 252 247 240 234 233 236 239 242 245 251 258 264 268 271 275 278 283 290 295 296 294 293 291 290 287 283 279 278 280 282 284 287 289 290 291 292 294 296 297 293 287 284 284 287 290 292 292 292 292 292 295 298 301 304 304 305 306 308 309 310 312 316 320 321 322 327 335 340 343 344 342 337 334 335 338 341 343 342 338 340 353 6
262 258 250 244 242 237 233 234 239 242 246 251 256 261 267 272 276 279 282 287 293 298 299 300 299 293 285 282 282 283 282 282 283 285 287 288 289 289 290 292 293 292 288 285 283 284 288 291 291 290 289 289 290 293 297 300 302 302 303 306 307 308 309 312 316 319 322 325 331 341 347 350 353 353 349 345 345 348 351 354 353 344 337 347 5
264 258 246 238 236 234 234 238 243 247 251 256 261 269 276 281 282 283 284 288 293 297 301 304 300 289 280 280 284 285 285 286 286 286 286 287 287 288 289 290 290 289 287 284 283 284 286 287 287 287 287 288 289 292 296 298 299 300 302 305 305 305 306 309 314 319 324 327 332 341 348 354 358 359 354 351 351 354 357 2 5 359 346 346 3
265 253 238 233 234 236 241 245 248 251 256 263 270 279 283 283 282 281 284 289 295 298 302 304 299 287 281 285 288 287 287 288 287 286 286 288 289 289 289 289 288 288 286 285 283 283 283 284 284 285 286 288 290 293 295 295 295 298 301 302 301 301 302 306 313 317 320 324 330 337 345 351 356 357 354 351 353 355 358 5 10 9 0 353 2
254 241 234 236 240 244 248 253 255 259 265 271 277 282 283 281 281 283 287 292 298 300 302 302 297 287 283 286 287 286 286 287 287 288 290 292 293 292 290 287 287 286 285 284 282 281 281 281 283 285 286 289 291 291 290 290 292 296 297 296 295 294 296 301 306 309 312 319 326 331 337 342 346 348 348 348 350 353 356 1 9 14 11 1 1
241 238 239 242 245 247 251 257 261 265 268 272 276 280 283 284 286 288 292 297 300 301 300 298 292 283 282 285 286 285 285 286 288 291 292 294 294 292 288 286 284 283 282 281 280 280 281 282 283 285 288 289 288 287 286 288 291 292 290 288 286 286 288 293 298 301 307 314 319 324 329 332 335 339 342 342 345 349 351 354 2 12 16 10 1
243 244 246 248 251 254 258 261 264 265 267 270 275 281 285 288 289 291 293 295 296 296 295 291 286 283 284 286 286 285 285 286 287 289 290 291 290 286 283 282 281 281 282 282 281 281 283 284 284 286 288 287 284 283 284 286 287 285 282 281 279 280 283 288 294 300 305 311 317 322 326 327 328 331 335 337 338 341 344 347 353 4 15 17 10
248 252 255 258 261 262 264 265 266 266 268 273 278 283 286 288 289 291 292 292 291 290 288 285 284 284 285 285 285 285 286 286 286 286 287 287 285 282 280 280 281 283 284 283 282 281 282 283 284 286 285 283 281 282 282 282 279 278 276 275 275 277 282 290 298 304 309 315 320 324 326 326 326 328 330 333 332 332 334 339 345 353 7 18 17
255 259 262 263 265 266 266 266 267 269 273 277 281 284 286 287 287 288 287 286 285 283 282 282 282 282 282 282 282 284 285 287 287 288 287 286 285 285 284 284 286 287 287 285 283 280 279 279 282 282 280 278 278 278 277 275 273 273 272 271 271 276 285 295 303 308 314 319 324 326 326 327 328 329 330 331 330 327 326 331 339 346 358 13 19
261 264 264 265 266 266 266 267 270 272 276 279 282 283 283 283 283 282 280 279 279 279 280 280 279 278 278 279 281 284 286 288 289 288 288 288 289 291 292 293 293 293 291 288 284 278 275 276 278 277 274 274 273 272 271 270 270 268 267 267 271 281 291 298 305 311 316 321 325 328 329 329 331 332 334 335 336 333 328 329 337 343 348 1 14
264 264 265 266 267 267 267 269 271 274 277 279 280 280 279 278 278 277 276 276 277 277 276 276 275 275 276 279 282 285 287 288 288 289 290 291 293 294 296 297 297 296 294 290 282 274 271 272 272 270 268 267 267 266 266 267 266 263 263 266 274 285 293 300 306 311 316 320 325 327 329 331 333 336 339 340 343 344 338 332 334 339 344 350 3
265 265 267 269 270 271 272 272 273 274 276 276 277 277 277 277 277 277 278 279 279 279 277 276 275 276 278 280 281 283 284 286 288 290 292 293 294 295 297 297 297 297 295 288 276 268 267 267 265 262 261 261 262 263 264 262 259 257 260 268 277 285 292 298 304 309 313 318 322 324 326 329 333 338 343 346 349 351 348 341 336 337 340 346 354
267 268 270 271 272 273 273 274 274 275 276 276 277 278 278 278 279 280 281 282 281 280 279 278 277 278 279 279 280 280 281 283 285 287 289 291 293 294 295 296 296 295 291 281 269 263 261 260 258 256 256 258 260 261 259 255 253 254 259 267 275 283 289 295 300 305 309 313 317 320 324 328 332 338 345 350 354 357 356 353 350 346 342 345 353
268 269 270 270 271 271 272 273 274 275 276 276 277 277 278 279 280 282 282 283 283 282 281 281 281 281 281 281 280 280 281 281 283 283 285 287 290 291 293 294 294 291 283 272 262 257 255 255 254 253 253 255 257 256 252 249 249 252 258 266 272 279 286 292 297 302 306 310 315 319 323 327 332 337 342 347 353 359 1 360 360 358 353 350 352
268 269 269 270 271 271 272 273 274 274 275 274 274 274 276 277 280 283 286 289 290 289 288 288 288 288 287 287 286 284 282 281 280 279 279 282 285 288 290 291 290 285 272 261 255 253 251 252 253 253 252 253 252 250 247 247 250 253 259 265 272 278 285 291 296 300 303 307 312 317 321 324 326 330 336 343 349 356 0 1 1 1 359 356 353
Height
3176 3177 3178 3179 3179 3178 3177 3177 3178 3178 3179 3179 3180 3181 3181 3181 3181 3180 3180 3180 3179 3179 3179 3178 3178 3177 3175 3174 3173 3173 3172 3172 3171 3170 3169 3168 3167 3166 3165 3164 3163 3162 3161 3160 3158 3157 3156 3155 3153 3152 3151 3150 3149 3147 3146 3145 3143 3142 3141 3139 3138 3136 3133 3131 3129 3129 3133 3133 3130 3129 3129 3127 3126 3126 3124 3122 3122 3121 3119 3119 3118 3118 3117 3117 3117
3173 3174 3174 3174 3174 3173 3173 3174 3175 3175 3175 3176 3175 3176 3177 3177 3178 3178 3177 3177 3177 3177 3177 3176 3175 3175 3174 3172 3172 3171 3170 3170 3169 3169 3168 3166 3165 3164 3162 3162 3161 3160 3159 3158 3157 3155 3154 3153 3151 3150 3148 3147 3147 3145 3144 3142 3141 3140 3138 3136 3135 3133 3131 3128 3126 3124 3126 3129 3127 3125 3125 3123 3122 3122 3121 3118 3117 3116 3115 3115 3114 3113 3112 3111 3111
3170 3170 3170 3170 3169 3169 3171 3171 3172 3171 3171 3171 3170 3169 3170 3172 3173 3174 3174 3173 3173 3173 3173 3173 3173 3172 3171 3170 3169 3168 3168 3167 3167 3166 3165 3164 3163 3162 3160 3159 3159 3158 3157 3156 3155 3153 3151 3150 3149 3147 3146 3145 3145 3143 3141 3140 3138 3137 3136 3134 3132 3131 3129 3126 3123 3121 3121 3122 3122 3121 3120 3119 3118 3118 3117 3114 3112 3111 3110 3110 3109 3108 3106 3105 3105
3166 3166 3166 3165 3165 3167 3168 3168 3167 3167 3166 3165 3164 3164 3164 3166 3167 3168 3169 3169 3169 3170 3170 3170 3170 3169 3169 3168 3167 3166 3165 3165 3164 3164 3163 3162 3161 3160 3158 3157 3157 3156 3155 3154 3152 3150 3149 3147 3146 3145 3143 3142 3142 3140 3139 3137 3136 3134 3133 3131 3129 3127 3126 3123 3121 3119 3117 3116 3117 3117 3115 3114 3114 3114 3112 3110 3108 3106 3105 3104 3103 3102 3101 3100 3099
3162 3162 3161 3162 3163 3164 3165 3164 3163 3162 3162 3161 3160 3160 3161 3161 3161 3163 3164 3164 3165 3165 3166 3166 3167 3166 3166 3165 3164 3163 3163 3163 3162 3162 3161 3160 3159 3158 3156 3155 3154 3154 3153 3151 3149 3147 3146 3145 3144 3142 3140 3139 3138 3137 3136 3134 3133 3132 3130 3129 3126 3124 3122 3121 3119 3116 3114 3112 3113 3114 3113 3110 3109 3109 3108 3105 3102 3101 3100 3098 3097 3095 3094 3094 3093
3158 3157 3158 3159 3160 3161 3161 3160 3158 3157 3157 3157 3157 3157 3157 3157 3158 3159 3160 3160 3161 3161 3163 3164 3164 3163 3163 3162 3162 3161 3161 3160 3160 3160 3159 3158 3157 3155 3154 3153 3152 3151 3150 3148 3146 3145 3143 3142 3141 3139 3137 3136 3135 3134 3132 3131 3130 3129 3127 3125 3123 3121 3119 3118 3116 3113 3111 3109 3108 3109 3109 3107 3104 3104 3104 3100 3096 3095 3093 3092 3091 3090 3089 3087 3086
3153 3153 3154 3155 3157 3157 3157 3156 3154 3153 3153 3154 3154 3154 3153 3153 3154 3156 3156 3155 3157 3159 3160 3161 3161 3160 3160 3160 3159 3159 3158 3158 3158 3157 3156 3155 3154 3153 3152 3151 3150 3149 3147 3146 3144 3142 3141 3139 3138 3136 3135 3133 3132 3130 3129 3127 3126 3125 3124 3122 3119 3117 3116 3114 3113 3111 3108 3106 3105 3104 3104 3102 3100 3099 3098 3096 3092 3090 3088 3084 3083 3084 3083 3081 3079
3150 3150 3151 3151 3152 3152 3152 3152 3151 3149 3149 3150 3151 3150 3150 3150 3151 3152 3151 3152 3155 3157 3157 3157 3157 3156 3157 3157 3157 3156 3156 3155 3155 3155 3154 3153 3151 3150 3149 3148 3147 3146 3145 3143 3142 3140 3138 3136 3135 3133 3132 3130 3128 3127 3125 3123 3122 3121 3120 3118 3115 3114 3112 3111 3109 3107 3105 3103 3102 3101 3099 3098 3097 3095 3093 3091 3088 3086 3084 3079 3076 3076 3075 3073 3072
3147 3147 3146 3147 3148 3148 3148 3148 3147 3145 3145 3145 3146 3146 3146 3146 3147 3148 3149 3150 3153 3154 3154 3154 3154 3153 3154 3154 3153 3153 3153 3153 3153 3152 3151 3150 3148 3147 3146 3145 3144 3143 3142 3141 3139 3137 3135 3133 3132 3130 3128 3127 3125 3123 3122 3120 3118 3116 3115 3114 3112 3110 3109 3107 3105 3103 3101 3099 3098 3097 3095 3094 3093 3090 3087 3086 3083 3080 3078 3076 3072 3070 3067 3065 3065
3143 3143 3142 3142 3143 3143 3143 3143 3142 3140 3138 3137 3138 3140 3140 3142 3144 3146 3147 3147 3149 3150 3151 3151 3151 3150 3151 3151 3151 3151 3151 3150 3150 3149 3148 3146 3145 3145 3143 3142 3141 3140 3139 3137 3135 3134 3132 3130 3129 3127 3125 3124 3122 3120 3118 3116 3114 3112 3110 3109 3108 3107 3105 3103 3102 3100 3098 3096 3094 3093 3092 3090 3089 3086 3083 3081 3079 3075 3073 3070 3067 3064 3061 3057 3056
3139 3139 3138 3138 3137 3137 3138 3138 3136 3135 3133 3129 3129 3133 3137 3140 3141 3142 3142 3143 3144 3146 3147 3148 3148 3147 3147 3148 3148 3149 3148 3148 3147 3146 3145 3143 3142 3142 3141 3140 3138 3137 3135 3134 3132 3131 3129 3127 3126 3124 3122 3121 3119 3117 3115 3113 3110 3108 3106 3105 3105 3103 3101 3099 3098 3096 3094 3092 3090 3090 3088 3086 3084 3083 3079 3077 3074 3071 3068 3065 3061 3058 3055 3051 3047
3135 3135 3134 3134 3133 3132 3132 3132 3130 3130 3129 3124 3124 3130 3134 3135 3135 3135 3136 3138 3140 3142 3143 3144 3145 3144 3144 3145 3146 3146 3146 3145 3144 3143 3142 3141 3140 3138 3137 3136 3135 3134 3133 3131 3129 3127 3125 3124 3122 3121 3119 3117 3115 3113 3111 3109 3107 3104 3102 3102 3101 3100 3098 3095 3093 3092 3090 3088 3086 3086 3085 3082 3079 3078 3076 3072 3069 3066 3064 3061 3058 3053 3050 3046 3041
3132 3132 3131 3130 3128 3127 3127 3126 3124 3125 3123 3118 3120 3127 3129 3128 3129 3130 3130 3133 3136 3138 3140 3141 3141 3140 3141 3142 3143 3143 3143 3141 3140 3139 3138 3138 3137 3135 3134 3133 3132 3131 3130 3127 3125 3124 3122 3120 3119 3117 3116 3113 3111 3109 3106 3104 3102 3100 3099 3098 3097 3096 3094 3092 3090 3087 3086 3084 3083 3082 3082 3078 3075 3073 3072 3068 3064 3061 3059 3056 3053 3049 3045 3041 3036
3128 3128 3127 3126 3125 3123 3123 3122 3120 3119 3116 3112 3115 3121 3123 3124 3126 3126 3127 3130 3133 3135 3137 3138 3138 3138 3138 3139 3140 3140 3139 3138 3137 3136 3135 3135 3134 3132 3131 3130 3129 3128 3126 3124 3122 3120 3118 3116 3114 3113 3111 3109 3107 3104 3102 3099 3097 3096 3096 3095 3094 3092 3090 3088 3086 3084 3083 3081 3079 3078 3078 3075 3071 3069 3068 3065 3060 3057 3054 3050 3048 3044 3039 3034 3030
3125 3124 3124 3123 3121 3119 3118 3117 3115 3112 3110 3109 3113 3117 3118 3121 3123 3123 3124 3127 3130 3132 3134 3134 3135 3135 3136 3136 3136 3136 3136 3135 3134 3133 3133 3132 3131 3130 3129 3127 3126 3124 3123 3121 3118 3116 3115 3112 3110 3108 3107 3105 3103 3100 3097 3095 3093 3092 3092 3091 3090 3089 3087 3085 3083 3081 3080 3079 3076 3074 3073 3071 3068 3066 3064 3062 3058 3054 3050 3046 3043 3039 3032 3026 3022
3122 3121 3120 3119 3118 3115 3113 3111 3109 3108 3108 3110 3113 3115 3115 3118 3121 3121 3123 3125 3127 3129 3130 3131 3132 3133 3133 3133 3133 3133 3133 3132 3131 3131 3130 3130 3129 3127 3126 3124 3122 3121 3119 3117 3115 3113 3111 3108 3106 3104 3102 3101 3099 3096 3093 3091 3090 3089 3088 3088 3087 3085 3084 3082 3079 3078 3077 3075 3072 3070 3068 3067 3065 3062 3060 3058 3054 3050 3046 3042 3040 3035 3026 3019 3015
3118 3117 3116 3115 3113 3111 3109 3107 3105 3105 3107 3110 3112 3113 3114 3116 3118 3119 3121 3123 3124 3126 3128 3129 3130 3131 3131 3130 3130 3130 3130 3129 3128 3128 3127 3127 3125 3124 3122 3121 3119 3117 3115 3113 3111 3109 3107 3105 3102 3100 3099 3097 3095 3092 3090 3088 3087 3086 3085 3084 3084 3082 3081 3079 3076 3075 3073 3071 3069 3067 3065 3063 3061 3058 3057 3054 3051 3047 3041 3037 3035 3030 3023 3015 3008
3115 3113 3112 3111 3109 3108 3106 3105 3103 3103 3104 3107 3109 3111 3112 3114 3115 3117 3119 3121 3122 3124 3125 3127 3128 3128 3128 3128 3127 3127 3127 3126 3125 3125 3124 3123 3121 3120 3119 3117 3115 3113 3111 3110 3108 3106 3104 3101 3098 3096 3094 3093 3091 3089 3087 3086 3084 3084 3082 3081 3080 3079 3077 3075 3073 3072 3069 3067 3066 3064 3061 3059 3057 3055 3053 3050 3048 3044 3038 3033 3030 3025 3019 3012 3003
3111 3110 3108 3107 3106 3105 3104 3103 3102 3102 3103 3105 3107 3108 3110 3111 3113 3116 3117 3119 3120 3122 3123 3124 3124 3125 3125 3124 3124 3123 3123 3122 3122 3121 3120 3119 3118 3117 3115 3113 3111 3109 3108 3107 3105 3103 3100 3097 3094 3092 3090 3089 3088 3086 3085 3083 3082 3081 3080 3078 3077 3075 3074 3072 3070 3068 3066 3064 3063 3061 3059 3056 3053 3051 3049 3047 3044 3041 3036 3031 3027 3021 3015 3008 3000
3108 3106 3105 3104 3103 3102 3102 3101 3100 3101 3103 3104 3105 3106 3108 3109 3111 3114 3115 3117 3119 3120 3121 3121 3121 3121 3121 3121 3120 3119 3119 3119 3118 3118 3117 3116 3114 3113 3111 3109 3107 3106 3105 3103 3101 3099 3097 3094 3091 3088 3087 3086 3085 3084 3082 3081 3080 3079 3077 3075 3073 3072 3070 3068 3066 3064 3063 3061 3059 3057 3055 3053 3050 3048 3045 3043 3040 3037 3033 3029 3024 3019 3011 3003 2995
3104 3103 3101 3100 3100 3100 3099 3099 3098 3099 3101 3102 3102 3104 3106 3107 3109 3111 3113 3115 3116 3117 3118 3118 3118 3118 3118 3117 3116 3116 3115 3115 3114 3114 3113 3111 3111 3109 3107 3105 3103 3102 3101 3099 3097 3094 3093 3090 3088 3085 3084 3083 3082 3081 3080 3079 3077 3076 3074 3072 3070 3068 3067 3065 3063 3061 3059 3057 3055 3053 3051 3048 3046 3044 3041 3038 3035 3032 3029 3025 3021 3016 3009 3000 2990
3100 3099 3098 3097 3097 3097 3096 3096 3096 3097 3098 3099 3099 3100 3102 3104 3106 3108 3110 3111 3113 3114 3114 3115 3115 3114 3114 3114 3112 3110 3110 3110 3110 3110 3109 3107 3106 3105 3103 3101 3099 3098 3096 3095 3092 3090 3088 3086 3085 3083 3081 3080 3080 3079 3078 3076 3074 3073 3071 3069 3067 3065 3063 3061 3059 3058 3056 3053 3051 3049 3047 3044 3042 3040 3037 3033 3030 3027 3024 3021 3017 3012 3007 2999 2989
3097 3096 3095 3094 3094 3094 3093 3093 3092 3092 3093 3094 3096 3098 3100 3101 3103 3104 3106 3107 3109 3110 3111 3111 3111 3111 3111 3110 3107 3104 3104 3104 3104 3103 3103 3102 3101 3100 3098 3097 3095 3093 3092 3090 3088 3086 3084 3083 3081 3080 3079 3078 3077 3076 3075 3073 3071 3069 3067 3065 3063 3061 3059 3057 3056 3054 3052 3049 3047 3045 3043 3040 3038 3035 3032 3029 3026 3022 3019 3016 3013 3008 3003 2996 2988
3093 3093 3092 3091 3091 3091 3090 3089 3089 3089 3090 3092 3094 3097 3099 3100 3100 3101 3103 3104 3105 3106 3107 3107 3107 3107 3107 3106 3103 3099 3099 3100 3099 3098 3098 3097 3097 3095 3094 3092 3091 3089 3088 3086 3084 3082 3081 3079 3078 3077 3076 3075 3074 3073 3072 3070 3068 3066 3064 3062 3060 3058 3056 3054 3052 3050 3048 3046 3043 3041 3039 3036 3033 3031 3028 3024 3021 3018 3015 3012 3009 3004 2999 2992 2984
3090 3089 3089 3088 3088 3088 3087 3087 3087 3087 3088 3090 3092 3095 3097 3097 3098 3100 3100 3101 3102 3103 3103 3103 3103 3103 3103 3103 3101 3098 3097 3096 3096 3095 3094 3093 3092 3091 3089 3088 3087 3085 3084 3082 3080 3078 3077 3077 3076 3074 3073 3072 3071 3070 3068 3066 3065 3063 3061 3059 3056 3054 3052 3050 3048 3047 3045 3042 3040 3037 3035 3032 3029 3026 3023 3020 3017 3014 3011 3009 3006 3001 2995 2988 2981
3087 3087 3086 3086 3085 3085 3085 3085 3086 3086 3087 3088 3090 3092 3094 3095 3096 3097 3098 3098 3099 3099 3099 3099 3099 3098 3098 3098 3097 3096 3095 3094 3092 3091 3090 3089 3088 3086 3085 3084 3083 3081 3080 3078 3076 3075 3074 3074 3073 3071 3070 3069 3068 3066 3065 3063 3061 3060 3057 3055 3053 3051 3049 3047 3045 3043 3041 3039 3036 3033 3031 3028 3025 3023 3020 3016 3013 3010 3007 3005 3002 2998 2991 2984 2976
3084 3084 3083 3083 3083 3083 3083 3083 3084 3084 3085 3086 3088 3090 3092 3093 3094 3095 3095 3095 3095 3095 3095 3095 3095 3094 3093 3093 3092 3091 3091 3090 3088 3087 3086 3085 3084 3083 3082 3081 3079 3077 3076 3074 3073 3072 3072 3071 3070 3068 3067 3066 3064 3063 3061 3060 3058 3056 3054 3052 3050 3048 3046 3044 3042 3040 3038 3035 3032 3030 3027 3025 3022 3019 3016 3014 3011 3008 3005 3002 2998 2994 2988 2981 2974
3081 3081 3081 3081 3081 3081 3081 3081 3082 3083 3083 3085 3087 3088 3090 3091 3091 3092 3092 3092 3092 3092 3092 3092 3091 3091 3090 3089 3088 3087 3086 3085 3084 3083 3082 3081 3080 3079 3078 3077 3075 3074 3072 3071 3070 3069 3068 3067 3066 3065 3063 3062 3061 3059 3058 3056 3054 3053 3051 3049 3047 3045 3042 3040 3038 3036 3034 3032 3029 3027 3024 3022 3019 3016 3013 3011 3008 3006 3003 3000 2996 2992 2986 2980 2973
3078 3078 3078 3079 3079 3078 3078 3079 3080 3081 3082 3084 3085 3087 3087 3088 3088 3089 3089 3089 3089 3089 3089 3088 3088 3087 3086 3085 3084 3082 3081 3080 3079 3079 3078 3077 3076 3075 3074 3073 3072 3070 3069 3068 3067 3066 3065 3063 3062 3060 3059 3058 3057 3056 3054 3053 3051 3050 3048 3047 3044 3042 3039 3037 3035 3033 3031 3029 3026 3024 3021 3019 3016 3013 3011 3008 3006 3004 3001 2998 2995 2990 2986 2980 2974
3075 3075 3075 3075 3076 3076 3076 3077 3078 3079 3080 3082 3083 3084 3084 3085 3085 3086 3086 3086 3086 3085 3085 3085 3084 3083 3082 3080 3079 3078 3077 3077 3076 3075 3074 3074 3073 3072 3071 3070 3068 3067 3066 3065 3063 3062 3060 3059 3058 3057 3056 3055 3054 3053 3051 3050 3049 3047 3046 3044 3042 3039 3036 3034 3032 3030 3028 3026 3023 3021 3019 3016 3014 3011 3008 3006 3004 3002 3000 2997 2993 2989 2985 2980 2974
3072 3072 3072 3072 3072 3073 3075 3075 3076 3077 3078 3079 3080 3081 3082 3082 3083 3083 3083 3083 3082 3082 3082 3081 3080 3079 3078 3076 3075 3074 3074 3073 3072 3072 3071 3071 3070 3069 3068 3066 3065 3064 3062 3061 3060 3058 3057 3055 3054 3054 3053 3052 3051 3050 3048 3047 3046 3045 3043 3041 3039 3036 3034 3032 3029 3027 3025 3023 3021 3019 3016 3014 3011 3008 3006 3003 3002 3000 2998 2995 2992 2989 2985 2980 2975
3070 3070 3070 3070 3070 3071 3072 3074 3075 3076 3076 3077 3078 3079 3079 3080 3080 3080 3080 3080 3079 3079 3078 3077 3076 3075 3073 3072 3071 3071 3070 3069 3069 3068 3068 3067 3067 3065 3064 3063 3062 3060 3059 3057 3056 3055 3054 3053 3052 3051 3051 3050 3049 3047 3046 3045 3043 3042 3040 3038 3036 3034 3031 3029 3026 3024 3022 3020 3018 3016 3014 3011 3009 3006 3003 3001 2999 2998 2996 2994 2991 2988 2985 2981 2976
3069 3069 3069 3070 3070 3070 3071 3072 3073 3074 3075 3076 3076 3077 3077 3077 3077 3077 3076 3076 3075 3075 3074 3072 3071 3070 3069 3069 3068 3067 3067 3066 3066 3065 3065 3064 3063 3062 3061 3060 3058 3057 3055 3054 3052 3051 3051 3050 3050 3049 3048 3047 3046 3045 3043 3042 3040 3039 3037 3035 3033 3031 3028 3026 3023 3021 3019 3017 3016 3014 3012 3009 3007 3004 3001 2999 2997 2996 2994 2993 2990 2988 2984 2981 2977
3067 3068 3068 3069 3069 3069 3070 3071 3071 3072 3073 3073 3074 3074 3074 3074 3074 3073 3073 3072 3071 3071 3069 3068 3067 3067 3066 3065 3065 3064 3063 3063 3062 3062 3061 3061 3060 3059 3058 3056 3055 3053 3052 3050 3049 3048 3048 3048 3047 3047 3046 3045 3043 3042 3040 3039 3037 3036 3034 3033 3030 3028 3025 3023 3021 3019 3017 3015 3013 3011 3009 3007 3005 3002 3000 2997 2996 2994 2993 2991 2989 2987 2984 2981 2977
3066 3066 3066 3066 3067 3067 3068 3068 3069 3070 3070 3070 3070 3071 3071 3070 3070 3069 3069 3068 3068 3067 3066 3064 3063 3064 3063 3062 3061 3061 3060 3059 3059 3058 3058 3057 3056 3055 3054 3052 3051 3049 3048 3047 3046 3045 3045 3045 3045 3044 3043 3042 3040 3039 3037 3036 3034 3033 3031 3030 3028 3025 3023 3020 3018 3016 3014 3013 3011 3009 3008 3005 3003 3000 2998 2996 2994 2993 2992 2991 2989 2986 2984 2981 2978
3063 3064 3064 3064 3064 3065 3065 3066 3066 3066 3066 3067 3067 3067 3067 3067 3066 3065 3065 3065 3065 3064 3063 3061 3060 3060 3059 3058 3057 3057 3056 3056 3055 3055 3054 3053 3052 3051 3049 3048 3047 3046 3045 3044 3043 3043 3042 3042 3042 3041 3040 3038 3037 3035 3034 3032 3031 3030 3028 3027 3025 3023 3020 3018 3016 3014 3012 3011 3009 3008 3006 3005 3002 3000 2997 2994 2993 2992 2991 2989 2988 2986 2983 2981 2979
3060 3060 3060 3061 3061 3062 3062 3063 3063 3063 3063 3063 3063 3063 3063 3063 3062 3062 3062 3062 3061 3060 3059 3058 3057 3056 3055 3054 3054 3053 3053 3052 3052 3051 3050 3049 3048 3047 3046 3045 3044 3043 3042 3041 3041 3040 3039 3039 3038 3037 3036 3035 3034 3032 3031 3029 3028 3026 3025 3024 3022 3020 3018 3016 3015 3013 3011 3009 3008 3007 3005 3004 3002 3000 2997 2994 2992 2991 2989 2988 2987 2985 2983 2982 2980
3056 3056 3057 3057 3057 3058 3059 3059 3059 3060 3060 3060 3060 3059 3059 3059 3059 3059 3059 3058 3057 3056 3055 3055 3054 3052 3051 3051 3050 3050 3049 3048 3048 3047 3046 3045 3044 3043 3042 3041 3041 3040 3039 3039 3038 3037 3036 3036 3035 3034 3033 3032 3031 3029 3028 3027 3025 3023 3022 3021 3019 3017 3016 3015 3013 3011 3010 3008 3007 3006 3005 3003 3002 2999 2997 2995 2992 2990 2989 2988 2987 2985 2984 2982 2980
3052 3053 3053 3053 3054 3054 3055 3055 3056 3056 3056 3056 3056 3056 3056 3056 3055 3055 3054 3053 3053 3052 3052 3051 3049 3048 3047 3047 3046 3046 3045 3044 3044 3043 3042 3041 3040 3040 3039 3038 3038 3037 3036 3036 3035 3034 3033 3032 3031 3030 3029 3028 3027 3026 3025 3024 3022 3020 3019 3018 3017 3015 3014 3013 3012 3010 3008 3007 3006 3005 3004 3003 3001 3000 2997 2995 2992 2990 2989 2987 2986 2985 2983 2982 2980
3048 3049 3049 3050 3051 3051 3052 3052 3053 3053 3053 3053 3053 3053 3053 3052 3051 3051 3050 3049 3049 3048 3048 3047 3046 3044 3043 3043 3043 3042 3041 3041 3040 3039 3039 3038 3037 3036 3036 3035 3034 3034 3033 3032 3032 3031 3030 3029 3028 3027 3026 3025 3024 3023 3022 3020 3019 3018 3017 3016 3015 3013 3012 3011 3010 3009 3007 3006 3005 3004 3003 3002 3001 2999 2998 2995 2993 2991 2989 2987 2986 2984 2983 2982 2980
3044 3045 3046 3047 3048 3049 3049 3050 3049 3049 3049 3049 3049 3049 3048 3048 3047 3046 3046 3045 3044 3043 3043 3042 3041 3041 3040 3039 3039 3038 3037 3037 3036 3036 3035 3034 3033 3033 3032 3032 3031 3030 3029 3029 3028 3027 3026 3025 3024 3024 3023 3022 3021 3020 3019 3017 3016 3015 3014 3014 3013 3012 3011 3010 3009 3008 3006 3005 3004 3003 3002 3001 3000 2999 2998 2995 2993 2991 2989 2987 2986 2984 2983 2981 2980
3041 3042 3043 3044 3045 3046 3046 3046 3046 3045 3045 3045 3045 3045 3044 3044 3043 3042 3042 3041 3040 3039 3038 3038 3037 3037 3036 3036 3035 3035 3034 3033 3032 3032 3031 3030 3030 3029 3029 3028 3027 3027 3026 3025 3024 3023 3022 3022 3021 3020 3019 3019 3018 3017 3016 3015 3014 3013 3012 3012 3011 3010 3009 3008 3008 3006 3005 3004 3004 3002 3001 3000 2999 2998 2997 2995 2993 2991 2989 2988 2986 2985 2983 2982 2980
3038 3039 3040 3041 3041 3041 3042 3042 3041 3041 3041 3041 3041 3041 3040 3039 3039 3038 3038 3037 3036 3035 3035 3034 3034 3034 3033 3032 3032 3031 3030 3029 3029 3028 3028 3027 3026 3026 3025 3024 3024 3023 3022 3021 3020 3019 3018 3018 3017 3017 3016 3015 3015 3014 3013 3012 3011 3011 3011 3010 3010 3009 3008 3007 3006 3005 3004 3003 3003 3001 3000 2999 2998 2997 2996 2995 2993 2991 2990 2988 2986 2985 2984 2982 2981
3035 3036 3037 3037 3037 3037 3037 3037 3037 3038 3038 3038 3037 3037 3036 3036 3035 3034 3034 3033 3032 3032 3031 3031 3031 3030 3030 3029 3028 3027 3026 3026 3025 3025 3024 3023 3023 3022 3021 3021 3020 3019 3018 3017 3016 3015 3015 3015 3014 3013 3013 3012 3012 3011 3010 3010 3009 3009 3009 3009 3008 3007 3007 3006 3005 3004 3003 3002 3001 3000 2999 2998 2997 2996 2995 2994 2993 2991 2990 2988 2987 2985 2984 2983 2981
3033 3033 3033 3034 3033 3033 3034 3034 3034 3034 3034 3034 3034 3033 3032 3032 3031 3030 3030 3029 3029 3028 3028 3027 3027 3027 3026 3026 3024 3023 3022 3022 3022 3021 3020 3019 3018 3018 3017 3017 3016 3015 3014 3012 3012 3012 3011 3011 3011 3010 3010 3010 3009 3009 3008 3008 3008 3008 3008 3007 3007 3006 3005 3005 3004 3003 3002 3001 3000 3000 2998 2997 2996 2995 2994 2993 2992 2991 2989 2988 2987 2985 2984 2983 2982
3031 3031 3030 3030 3030 3030 3031 3031 3031 3031 3030 3030 3030 3030 3029 3028 3028 3027 3026 3025 3025 3024 3024 3024 3024 3023 3023 3022 3021 3020 3019 3018 3018 3017 3016 3015 3014 3014 3013 3013 3012 3011 3010 3008 3008 3008 3008 3008 3008 3008 3008 3007 3007 3007 3006 3006 3006 3006 3006 3006 3006 3005 3004 3004 3003 3002 3001 3000 2999 2999 2997 2996 2995 2994 2993 2992 2991 2990 2989 2988 2987 2986 2985 2984 2983
3028 3028 3028 3028 3028 3028 3028 3027 3027 3027 3027 3027 3027 3026 3025 3025 3024 3023 3022 3022 3021 3021 3021 3021 3020 3020 3019 3019 3018 3017 3016 3015 3014 3014 3013 3012 3011 3010 3009 3009 3008 3007 3006 3005 3005 3005 3005 3005 3005 3006 3006 3005 3005 3005 3005 3005 3005 3005 3005 3005 3004 3004 3003 3002 3002 3001 3000 2999 2998 2998 2996 2995 2994 2993 2992 2991 2990 2989 2988 2987 2986 2985 2985 2984 2983
3025 3025 3025 3025 3025 3024 3024 3024 3024 3023 3023 3023 3023 3022 3022 3021 3020 3020 3019 3019 3019 3018 3018 3017 3017 3016 3016 3015 3015 3014 3013 3012 3011 3010 3009 3008 3007 3006 3006 3005 3005 3004 3003 3002 3002 3002 3002 3002 3003 3004 3004 3003 3003 3003 3003 3003 3004 3004 3004 3004 3003 3002 3002 3001 3000 3000 2999 2998 2997 2997 2995 2994 2994 2993 2992 2991 2990 2989 2987 2987 2986 2985 2984 2984 2983
3022 3022 3021 3021 3021 3021 3021 3021 3020 3020 3020 3019 3019 3019 3018 3018 3017 3017 3017 3016 3016 3015 3015 3014 3014 3013 3012 3012 3011 3010 3009 3008 3008 3007 3006 3005 3004 3003 3002 3002 3002 3001 3000 3000 3000 3000 3000 3001 3001 3002 3002 3001 3001 3002 3002 3002 3002 3003 3003 3002 3002 3001 3001 3000 2999 2998 2998 2997 2997 2996 2995 2994 2993 2992 2991 2990 2989 2988 2987 2986 2985 2985 2984 2983 2983
3018 3018 3018 3018 3018 3018 3018 3018 3017 3017 3017 3016 3016 3015 3015 3014 3014 3014 3013 3013 3012 3012 3011 3010 3010 3009 3008 3008 3007 3006 3006 3005 3004 3004 3003 3002 3000 2999 2999 2999 2999 2998 2998 2998 2998 2998 2998 2999 2999 3000 3000 3000 3000 3000 3000 3001 3001 3001 3001 3001 3001 3000 3000 2999 2998 2997 2997 2996 2996 2995 2994 2993 2992 2992 2991 2990 2989 2988 2987 2986 2985 2985 2984 2983 2983
3015 3015 3015 3015 3015 3015 3015 3015 3014 3014 3013 3013 3012 3012 3011 3011 3011 3010 3009 3009 3008 3007 3006 3006 3005 3004 3004 3003 3003 3002 3001 3001 3000 3000 2999 2998 2997 2997 2996 2996 2996 2996 2996 2996 2996 2996 2997 2997 2997 2998 2998 2998 2998 2998 2999 2999 3000 3000 3000 3000 3000 2999 2998 2998 2997 2996 2996 2995 2995 2994 2993 2993 2992 2991 2990 2989 2988 2988 2987 2986 2985 2985 2984 2983 2983